Location: Rounton
(54.4000°N, 1.3500°W)
Time: 04:04:16
(UTC+00:00)

S-56A Canister/Altair - Pass Details

Date: 07 December 2021
Orbit: 633 x 2499 km, 38.9° (Epoch: 17 January)

Event Time Altitude Azimuth Distance (km) Brightness Sun altitude
Rises 01:36:15 0° 250° (WSW) 4,880 - -53.1°
Reaches altitude 10° 01:40:39 10° 238° (WSW) 3,532 - -52.7°
Maximum altitude 01:46:53 23° 191° (S) 2,189 - -52.1°
Drops below altitude 10° 01:51:39 10° 141° (SE) 2,608 - -51.6°
Sets 01:54:20 0° 126° (SE) 3,344 - -51.3°
